Location: Haulchin
(50.3172°N, 3.4360°E)
Time: 11:28:00
(UTC+00:00)

USA 267 - Pass Details

Date: 23 May 2024
Orbit: 1100 x 1107 km, 123.0° (Epoch: 21 May)

Event Time Altitude Azimuth Distance (km) Brightness Sun altitude
Rises 01:58:55 0° 66° (ENE) 3,921 7.2 -13.0°
Reaches altitude 10° 02:01:26 10° 62° (ENE) 2,962 6.5 -12.7°
Maximum altitude 02:07:47 56° 347° (NNW) 1,296 3.9 -12.2°
Drops below altitude 10° 02:14:07 10° 272° (W) 2,959 5.2 -11.6°
Sets 02:16:38 0° 268° (W) 3,916 5.8 -11.4°
